[[{"header":{"parameterUnit":"m.s-1","parameterCategory":1,"la1":30.2991,"la2":30.254,"lo1":-89.0895,"lo2":-89.0444,"dy":0.0017,"dx":0.0017,"nx":28,"ny":28,"refTime":"2023-08-17T21:00:00:Z","depth":0,"parameterNumber":2,"parameterNumberName":"U-component_of_WINDS"},"data":[0,0,0,0,0,0,0,0,0,0,0,0,0,0,0,0,0,0,0,0,0,0,0,0,0,0,0,0,0,0,0,0,0,0,0,0,0,0,0,0,0,0,0,0,0,0,0,0,0,0,0,0,0,0,0,0,0,0,1.391,1.391,0,1.3958,1.3958,1.3959,1.392,1.3918,1.3917,1.3915,1.3969,1.3971,1.3974,0,0,0,0,0,0,0,0,0,0,0,0,0,1.3789,1.3792,1.391,1.391,1.3911,1.3958,1.3958,1.3959,1.392,1.3918,1.3916,1.3914,1.3968,1.3971,1.3975,0,0,0,0,0,0,0,0,0,0,0,0,0,1.384,1.3792,1.391,1.3897,1.3897,1.3958,1.3958,1.3959,1.3921,1.3918,1.3916,1.3913,1.3966,1.3971,1.3975,1.4052,0,0,1.3989,1.3991,0,0,0,0,0,0,0,0,1.3837,1.3844,1.3899,1.3898,1.3898,1.393,1.3935,1.3991,1.3921,1.3912,1.3915,1.3912,1.3958,1.3963,1.3978,1.4055,1.4057,1.3989,1.3992,1.3994,1.3995,0,0,0,0,0,0,0,1.3834,1.3842,1.3929,1.3899,1.3899,1.3891,1.3895,1.3946,1.3948,1.3912,1.391,1.3916,1.3957,1.3973,1.3979,1.4058,1.3989,1.3993,1.3996,1.3997,1.4202,1.4204,0,0,0,0,0,0,1.3831,1.3839,1.3927,1.393,1.386,1.3895,1.39,1.3922,1.3948,1.3949,1.3918,1.3914,1.3967,1.3974,1.398,1.4073,1.3994,1.3998,1.4,1.4199,1.4202,1.4205,0,0,0,0,0,0,1.3828,1.3839,1.3926,1.3884,1.3895,1.39,1.3925,1.3925,1.3941,1.3952,1.3952,1.3933,1.3965,1.3974,1.4035,1.4074,1.4,1.4004,1.4196,1.42,1.4204,1.4258,0,0,0,0,0,0,1.3825,1.3838,1.3867,1.3885,1.3897,1.3978,1.3928,1.3927,1.3948,1.3943,1.3967,1.3968,1.3964,1.4028,1.4039,1.4079,1.4007,1.4192,1.4197,1.4202,1.4252,1.4263,1.4272,0,0,0,0,0,1.3821,1.3881,1.3868,1.3879,1.3932,1.398,1.3987,1.398,1.3951,1.398,1.3988,1.3967,1.4068,1.4035,1.4047,1.4088,1.419,1.4196,1.4202,1.4248,1.4261,1.4272,0,0,0,0,0,0,1.3868,1.3883,1.3869,1.3936,1.3957,1.3973,1.401,1.3994,1.4024,1.4019,1.401,1.4016,1.4079,1.409,1.4052,1.4165,1.4124,1.4133,1.4155,1.4168,1.4177,1.4174,1.4011,0,0,0,0,0,1.3886,1.3922,1.3934,1.3992,1.4003,1.4005,1.4025,1.4018,1.404,1.4049,1.406,1.4083,1.412,1.4144,1.4179,1.4254,1.4259,1.4288,1.4298,1.4306,1.4314,1.4355,1.4368,1.4225,1.4225,1.4225,0,0,1.3924,1.3937,1.396,1.4002,1.4017,1.4056,1.4012,1.4056,1.4085,1.4056,1.4113,1.4123,1.4148,1.4216,1.4246,1.4227,1.4355,1.4314,1.4321,1.4324,1.4363,1.4376,1.4388,1.423,1.4229,1.4228,0,0,1.4013,1.4026,1.4076,1.4092,1.4115,1.4116,1.4128,1.4147,1.4151,1.4209,1.4188,1.4223,1.4287,1.4305,1.4323,1.442,1.4403,1.4432,1.4484,1.4524,1.4535,1.4545,1.458,1.4592,1.444,1.444,1.444,0,1.4057,1.4114,1.4104,1.4149,1.4168,1.4142,1.4194,1.421,1.4244,1.4259,1.4236,1.4315,1.433,1.4402,1.4426,1.4441,1.4456,1.4429,1.4534,1.4544,1.4553,1.4586,1.4599,1.4443,1.4443,1.4442,1.4442,0,1.4168,1.4208,1.4246,1.4277,1.4301,1.4349,1.4348,1.4374,1.4365,1.4368,1.4428,1.4445,1.4482,1.4499,1.4491,1.4571,1.4558,1.4535,1.4494,1.457,1.4601,1.4614,1.4448,1.4447,1.4446,1.4445,0,0,1.4287,1.4313,1.4327,1.4342,1.4366,1.4397,1.4444,1.448,1.4502,1.4527,1.4567,1.4621,1.46,1.462,1.4615,1.465,1.4726,1.4622,1.4623,1.4641,1.4815,1.4832,1.4846,1.4714,1.4717,1.4719,1.4813,0,1.4377,1.4458,1.4451,1.4528,1.4565,1.4542,1.4583,1.4603,1.4608,1.4642,1.4648,1.4686,1.4655,1.4667,1.4701,1.4709,1.4761,1.4703,1.4753,1.4755,1.4747,1.4863,1.4881,1.4968,1.4825,1.4827,1.4828,0,1.4493,1.452,1.4601,1.4619,1.4634,1.4672,1.4704,1.4736,1.4758,1.476,1.4783,1.4771,1.482,1.4779,1.4847,1.4807,1.4828,1.4835,1.4838,1.4843,1.4796,1.487,1.4996,1.5009,1.4847,1.4846,1.4844,0,1.4572,1.4629,1.4684,1.4698,1.4721,1.4748,1.4759,1.4779,1.4801,1.483,1.4844,1.4879,1.4898,1.4926,1.4924,1.4894,1.4994,1.4952,1.4997,1.4997,1.5019,1.5017,1.515,1.5032,1.5032,1.5032,1.5031,0,1.4673,1.4723,1.472,1.4755,1.4811,1.4803,1.4859,1.4867,1.4886,1.4922,1.4905,1.4939,1.4935,1.4971,1.497,1.5027,1.5036,1.5039,1.5038,1.5041,1.504,1.5054,1.5047,1.5035,1.5034,1.5034,1.5033,0,1.477,1.4771,1.483,1.4847,1.4852,1.4893,1.4908,1.4941,1.4945,1.4991,1.5001,1.5008,1.5049,1.505,1.5097,1.5097,1.5166,1.5159,1.5158,1.5156,1.5201,1.5197,1.5347,1.5366,1.5236,1.5238,1.5239,0,1.4835,1.4873,1.4894,1.4916,1.4929,1.4965,1.4987,1.4982,1.5006,1.5035,1.5065,1.5104,1.5134,1.5201,1.5211,1.5247,1.524,1.529,1.5246,1.5247,1.5241,1.5238,1.5242,1.5299,1.53,1.5301,1.5302,0,1.4949,1.4947,1.4979,1.5011,1.5038,1.5063,1.5087,1.5107,1.5104,1.5132,1.5173,1.5197,1.5245,1.5284,1.5319,1.5332,1.5317,1.5316,1.5329,1.5331,1.5329,1.5331,1.5181,1.5313,1.5312,1.5311,1.5311,1.531,1.5032,1.5065,1.5085,1.5121,1.5138,1.516,1.5192,1.52,1.5233,1.5271,1.5266,1.5312,1.5334,1.538,1.5396,1.5432,1.5415,1.5433,1.5437,1.5442,1.5446,1.5323,1.5439,1.5438,1.5438,1.5438,1.5438,0,1.5145,1.5157,1.519,1.5223,1.5252,1.5235,1.526,1.5286,1.5326,1.5348,1.5378,1.5425,1.5463,1.5476,1.5513,1.554,1.5534,1.555,1.5548,1.5551,1.546,1.5445,1.5554,1.5554,1.5554,1.5554,1.5554,1.5554,1.5207,1.5262,1.5263,1.5326,1.5338,1.5381,1.5397,1.5418,1.5436,1.5489,1.552,1.5527,1.5546,1.5584,1.5619,1.5622,1.5636,1.5655,1.5655,1.5569,1.5558,1.5546,1.5533,1.5658,1.5658,1.5743,1.5744,1.5744]},{"header":{"parameterUnit":"m.s-1","parameterCategory":1,"la1":30.2991,"la2":30.254,"lo1":-89.0895,"lo2":-89.0444,"dy":0.0017,"dx":0.0017,"nx":28,"ny":28,"refTime":"2023-08-17T21:00:00:Z","depth":0,"parameterNumber":3,"parameterNumberName":"V-component_of_WINDS"},"data":[0,0,0,0,0,0,0,0,0,0,0,0,0,0,0,0,0,0,0,0,0,0,0,0,0,0,0,0,0,0,0,0,0,0,0,0,0,0,0,0,0,0,0,0,0,0,0,0,0,0,0,0,0,0,0,0,0,0,2.7981,2.7981,0,2.7992,2.7992,2.7992,2.7993,2.7993,2.7993,2.7993,2.8,2.8001,2.8001,0,0,0,0,0,0,0,0,0,0,0,0,0,2.7953,2.7954,2.7981,2.7981,2.7981,2.7992,2.7992,2.7992,2.7993,2.7993,2.7993,2.7993,2.8,2.8001,2.8001,0,0,0,0,0,0,0,0,0,0,0,0,0,2.7965,2.7954,2.7981,2.7983,2.7983,2.7992,2.7992,2.7992,2.7993,2.7993,2.7993,2.7992,2.8,2.8001,2.8001,2.8008,0,0,2.8003,2.8003,0,0,0,0,0,0,0,0,2.7964,2.7966,2.7982,2.7983,2.7983,2.7991,2.7985,2.7997,2.7993,2.7989,2.7993,2.7992,2.7997,2.7998,2.8,2.8008,2.8008,2.8003,2.8003,2.8003,2.8003,0,0,0,0,0,0,0,2.7964,2.7965,2.7985,2.7982,2.7983,2.7981,2.7982,2.7988,2.7994,2.7989,2.799,2.7991,2.7997,2.8,2.8001,2.8009,2.8003,2.8003,2.8003,2.8004,2.8018,2.8018,0,0,0,0,0,0,2.7963,2.7965,2.7985,2.7985,2.7973,2.7982,2.7983,2.7988,2.7994,2.7995,2.7991,2.7991,2.7999,2.8,2.8001,2.8006,2.8003,2.8004,2.8004,2.8018,2.8018,2.8018,0,0,0,0,0,0,2.7962,2.7965,2.7984,2.7975,2.7977,2.7982,2.7988,2.7989,2.7991,2.7995,2.7996,2.7993,2.7999,2.8,2.8005,2.8007,2.8004,2.8004,2.8018,2.8018,2.8018,2.8019,0,0,0,0,0,0,2.7962,2.7965,2.7969,2.7975,2.7978,2.7991,2.7988,2.7989,2.7993,2.7993,2.7997,2.7998,2.7999,2.8005,2.8006,2.8007,2.8005,2.8018,2.8018,2.8018,2.8019,2.8019,2.802,0,0,0,0,0,2.7961,2.7969,2.7969,2.7972,2.7984,2.7991,2.7992,2.7995,2.7993,2.7996,2.7998,2.7998,2.8006,2.8005,2.8007,2.8008,2.8017,2.8018,2.8018,2.8019,2.8019,2.802,0,0,0,0,0,0,2.7962,2.797,2.797,2.7981,2.7985,2.7991,2.7995,2.7995,2.7999,2.7999,2.8,2.8001,2.8006,2.8007,2.8006,2.8013,2.8011,2.8012,2.8012,2.8012,2.8012,2.8012,2.8005,0,0,0,0,0,2.7964,2.7971,2.7976,2.7985,2.7987,2.7991,2.7994,2.7995,2.7999,2.8,2.8003,2.8005,2.8008,2.801,2.8014,2.8019,2.8018,2.802,2.8021,2.8021,2.8021,2.8021,2.8021,2.8019,2.8019,2.8019,0,0,2.7967,2.7972,2.7976,2.7985,2.7989,2.7993,2.7992,2.7998,2.8001,2.8001,2.8006,2.8007,2.801,2.8014,2.8016,2.8016,2.8021,2.8021,2.8021,2.8021,2.8021,2.8021,2.8022,2.8019,2.8019,2.8019,0,0,2.7976,2.7981,2.7988,2.7991,2.7996,2.7997,2.7999,2.8004,2.8005,2.801,2.8009,2.8011,2.8017,2.8018,2.8019,2.8024,2.8023,2.8025,2.8026,2.8026,2.8026,2.8026,2.8026,2.8026,2.8025,2.8025,2.8025,0,2.7979,2.7988,2.7991,2.7996,2.7998,2.7999,2.8004,2.8006,2.8011,2.8012,2.8011,2.8017,2.8019,2.8022,2.8023,2.8025,2.8024,2.8024,2.8026,2.8026,2.8026,2.8026,2.8026,2.8025,2.8025,2.8025,2.8025,0,2.799,2.7996,2.8,2.8005,2.8008,2.8013,2.8015,2.8017,2.8017,2.8018,2.802,2.8022,2.8025,2.8025,2.8026,2.8028,2.8027,2.8026,2.8025,2.8027,2.8026,2.8026,2.8025,2.8025,2.8025,2.8025,0,0,2.8002,2.8006,2.8008,2.8009,2.8013,2.8016,2.8019,2.8022,2.8023,2.8025,2.8027,2.803,2.8028,2.803,2.803,2.803,2.803,2.8028,2.8028,2.8027,2.8029,2.8029,2.8029,2.8029,2.8029,2.8029,2.8028,0,2.8009,2.8017,2.8018,2.8024,2.8027,2.8026,2.8028,2.8029,2.8029,2.8031,2.803,2.8032,2.8031,2.8031,2.8031,2.803,2.803,2.803,2.8028,2.8028,2.8027,2.8029,2.803,2.8029,2.8028,2.8028,2.8028,0,2.802,2.8022,2.8029,2.8029,2.8031,2.8033,2.8034,2.8036,2.8036,2.8035,2.8035,2.8034,2.8035,2.8033,2.8032,2.8032,2.8031,2.803,2.803,2.8029,2.8028,2.8027,2.8029,2.8028,2.8028,2.8028,2.8028,0,2.8025,2.803,2.8034,2.8035,2.8036,2.8037,2.8037,2.8037,2.8038,2.8038,2.8037,2.8037,2.8037,2.8035,2.8033,2.8033,2.8031,2.8031,2.8029,2.8029,2.8029,2.8029,2.803,2.803,2.803,2.803,2.803,0,2.8033,2.8036,2.8036,2.8038,2.804,2.804,2.8042,2.8042,2.8041,2.8041,2.804,2.8039,2.8037,2.8036,2.8034,2.8032,2.8032,2.803,2.8029,2.803,2.803,2.8029,2.8028,2.803,2.803,2.803,2.803,0,2.8039,2.804,2.8043,2.8043,2.8043,2.8045,2.8044,2.8044,2.8043,2.8043,2.8043,2.8041,2.8039,2.8037,2.8034,2.8033,2.8031,2.803,2.8031,2.803,2.8029,2.8028,2.8028,2.8027,2.8029,2.8029,2.8029,0,2.8044,2.8046,2.8046,2.8047,2.8047,2.8048,2.8048,2.8046,2.8046,2.8044,2.8044,2.8043,2.8041,2.8038,2.8035,2.8032,2.803,2.803,2.803,2.8029,2.8028,2.8028,2.8027,2.803,2.803,2.803,2.803,0,2.8051,2.8051,2.8052,2.8051,2.8052,2.8051,2.8051,2.8051,2.8048,2.8048,2.8046,2.8045,2.8041,2.8038,2.8035,2.8033,2.803,2.803,2.803,2.803,2.803,2.8028,2.803,2.8031,2.8031,2.803,2.803,2.803,2.8056,2.8057,2.8056,2.8056,2.8056,2.8054,2.8054,2.8053,2.8052,2.8049,2.8048,2.8045,2.8042,2.8037,2.8034,2.8031,2.803,2.803,2.8029,2.8029,2.8028,2.8031,2.803,2.803,2.803,2.803,2.803,0,2.8062,2.8061,2.8061,2.806,2.8059,2.8057,2.8056,2.8055,2.8053,2.805,2.8048,2.8045,2.8041,2.8037,2.8033,2.8031,2.8029,2.8029,2.8029,2.8028,2.803,2.8031,2.803,2.803,2.803,2.803,2.803,2.803,2.8065,2.8065,2.8064,2.8063,2.8061,2.806,2.8059,2.8056,2.8054,2.805,2.8048,2.8045,2.8041,2.8036,2.8032,2.803,2.8028,2.8028,2.8026,2.8028,2.8028,2.8028,2.8029,2.8028,2.8028,2.8024,2.8024,2.8024]}]]